Flag Weather past 2 weeks in Pinneberg, Schleswig-Holstein, Germany

Now
32 °F

Fog.


Feels Like: 32 °F
Forecast: 33 / 43 °F
Wind: 1 mph from West

Location: Hamburg-Fuhlsbuettel

Current Time: Nov 20, 2014 at 10:49:24 PM

Latest Report: Nov 20, 2014 at 10:20 PM


Visibility: N/A

Pressure: 30.36 "Hg

Humidity: 100%

Dew point: 32 °F

Location of PinnebergLocation

Historic Weather in Pinneberg — Graph

°F

Pinneberg temperature yesterday

Maximum temperature yesterday: 46 °F (at 1:50 PM)
Minimum temperature yesterday: 43 °F (at 11:20 PM)
Average temperature yesterday: 45 °F

Past Weeks' High & Low Weather Summary

 TemperatureHumidityPressure
High54 °F (Nov 6, 12:20 PM)100% (Nov 6, 1:20 AM)30.36 "Hg (Nov 6, 1:20 AM)
Low34 °F (Nov 20, 9:20 PM)71% (Nov 7, 2:20 PM)29.56 "Hg (Nov 16, 12:20 PM)
Average47 °F92%29.85 "Hg
* Reported Nov 5 9:20 PM — Nov 20 9:20 PM, Pinneberg, Weather by CustomWeather, © 2014

Note: Actual official high and low records may vary slightly from our data, if they occured in-between our weather recording intervals... More about our weather records

Advertising

Pinneberg weather history for previous 24 hours

 ConditionsComfort  
Time TempWeatherWind HumidityBarometerVisibility
9:20 PM
Nov 20
34 °FChilly.No wind100%30.36 "HgN/A
8:20 PM36 °FFog.2 mph100%30.36 "HgN/A
7:50 PM36 °FChilly.3 mph100%30.36 "HgN/A
7:20 PM36 °FFog.5 mph100%30.36 "HgN/A
6:50 PM37 °FChilly.3 mph93%30.36 "HgN/A
6:20 PM37 °FFog.2 mph100%30.36 "HgN/A
5:50 PM39 °FFog.2 mph93%30.36 "HgN/A
5:20 PM39 °FPassing clouds.3 mph93%30.33 "HgN/A
4:50 PM41 °FPassing clouds.5 mph93%30.33 "HgN/A
4:20 PM43 °FPassing clouds.6 mph87%30.36 "HgN/A
3:20 PM45 °FPassing clouds.3 mph81%30.36 "HgN/A
2:50 PM46 °FPassing clouds.7 mph82%30.36 "HgN/A
2:20 PM46 °FPassing clouds.6 mph87%30.36 "HgN/A
1:50 PM46 °FPassing clouds.8 mph87%30.36 "HgN/A
1:20 PM50 °FPassing clouds.1 mph76%30.36 "HgN/A
12:50 PM45 °FPassing clouds.2 mph87%30.36 "HgN/A
12:20 PM48 °FScattered clouds.5 mph82%30.36 "HgN/A
11:50 AM48 °FPartly sunny.1 mph82%30.36 "HgN/A
11:20 AM46 °FPassing clouds.2 mph87%30.36 "Hg4 mi
10:50 AM46 °FPassing clouds.2 mph87%30.36 "Hg4 mi
10:20 AM45 °FFog.3 mph100%30.36 "Hg3 mi
9:50 AM45 °FFog.6 mph100%30.36 "Hg3 mi
9:20 AM45 °FFog.3 mph100%30.36 "Hg3 mi
8:50 AM45 °FFog.1 mph93%30.36 "Hg2 mi
8:20 AM45 °FFog.3 mph93%30.36 "Hg2 mi
7:50 AM43 °FFog.1 mph100%30.36 "Hg2 mi
7:20 AM45 °FFog.2 mph93%30.33 "Hg3 mi
6:50 AM43 °FFog.2 mph100%30.33 "Hg3 mi
6:20 AM43 °FFog.2 mph100%30.33 "Hg3 mi
5:50 AM43 °FFog.3 mph100%30.33 "Hg3 mi
5:20 AM43 °FFog.3 mph100%30.33 "Hg3 mi
4:50 AM43 °FFog.2 mph100%30.33 "Hg3 mi
4:20 AM43 °FFog.2 mph100%30.33 "Hg3 mi
3:50 AM43 °FFog.2 mph100%30.33 "Hg2 mi
3:20 AM43 °FFog.2 mph100%30.33 "Hg2 mi
2:50 AM43 °FFog.2 mph100%30.33 "Hg2 mi
1:50 AM43 °FFog.2 mph100%30.33 "Hg2 mi
1:20 AM43 °FFog.2 mph100%30.33 "Hg2 mi
12:50 AM43 °FFog.1 mph100%30.33 "Hg2 mi
12:20 AM43 °FFog.2 mph100%30.33 "Hg2 mi
11:50 PM
Nov 19
43 °FFog.2 mph100%30.30 "Hg3 mi
11:20 PM43 °FPartly cloudy.2 mph100%30.30 "Hg3 mi
10:50 PM45 °FPassing clouds.3 mph93%30.30 "Hg3 mi
10:20 PM45 °FPassing clouds.2 mph93%30.30 "Hg3 mi
Weather by CustomWeather, © 2014

See weather overviewHow to use our weather pages